Middletown, OH

6:15 PM EST on February 22, 2017 (GMT -0500)
Hook Field Municipal

Weather History for KMWO - December, 2013

Change the Weather History Date:

Wednesday, December 11, 2013

  Actual Average (KFFO) Record (KFFO)
Temperature  
Mean Temperature 20 °F -  
Max Temperature 35 °F 40 °F 64 °F (2007)
Min Temperature 5 °F 26 °F 10 °F (2013)
Degree Days  
Heating Degree Days 45    
Moisture  
Dew Point 10 °F    
Average Humidity 70    
Maximum Humidity 85    
Minimum Humidity 44    
Precipitation  
Precipitation 0.00 in - - ()
Sea Level Pressure  
Sea Level Pressure 30.39 in    
Wind  
Wind Speed 3 mph (WNW)    
Max Wind Speed 16 mph    
Max Gust Speed 24 mph    
Visibility 7 miles    
Events Snow    
Averages and records for this station are not official NWS values.
T = Trace of Precipitation, MM = Missing Value Source: NWS Daily Summary

Daily Weather History Graph

Daily Weather History Graph

Search for Another Location

Airport or City:

Trip Planner

Search our weather history database for the weather conditions in past years. The results will help you decide how hot, cold, wet, or windy it might be!

Date:

Astronomy

Dec. 11, 2013 Rise Set
Actual Time 7:48 AM EST 5:13 PM EST
Civil Twilight 7:17 AM EST 5:44 PM EST
Nautical Twilight 6:44 AM EST 6:17 PM EST
Astronomical Twilight 6:11 AM EST 6:50 PM EST
Moon 1:46 PM EST (12/11) 2:09 AM EST (12/11)
Length of Visible Light 10h 26m
Length of Day
9h 25m
Waxing Gibbous, 71% of the Moon is Illuminated
Dec 11
Waxing Gibbous
Dec 17
Full
Dec 25
Last Quarter
Jan 1
New
Jan 7
First Quarter

Hourly Weather History & Observations

Time (EST) Temp. Windchill Dew Point Humidity Pressure Visibility Wind Dir Wind Speed Gust Speed Precip Events Conditions
12:15 AM 13.1 °F - 9.0 °F 84% 30.37 in 10.0 mi Calm Calm - N/A   Clear
12:35 AM 10.9 °F - 6.4 °F 82% 30.37 in 5.0 mi Calm Calm - N/A   Haze
12:55 AM 12.7 °F - 8.6 °F 84% 30.37 in 1.5 mi Calm Calm - N/A   Haze
1:15 AM 10.2 °F - 5.9 °F 83% 30.37 in 2.0 mi Calm Calm - N/A   Clear
1:35 AM 7.9 °F - 3.4 °F 82% 30.37 in 0.2 mi Calm Calm - N/A   Haze
1:55 AM 9.0 °F - 4.3 °F 81% 30.37 in 2.0 mi Calm Calm - N/A   Haze
2:15 AM 7.7 °F - 3.2 °F 82% 30.37 in 5.0 mi Calm Calm - N/A   Haze
2:35 AM 7.7 °F - 3.0 °F 81% 30.37 in 0.5 mi Calm Calm - N/A   Haze
2:55 AM 7.7 °F - 3.0 °F 81% 30.38 in 0.2 mi Calm Calm - N/A   Haze
3:15 AM 7.7 °F - 3.2 °F 82% 30.39 in 0.8 mi Calm Calm - N/A   Haze
3:35 AM 7.7 °F - 3.0 °F 81% 30.39 in 4.0 mi Calm Calm - N/A   Haze
3:55 AM 5.7 °F - 0.5 °F 79% 30.39 in 7.0 mi Calm Calm - N/A   Clear
4:15 AM 7.7 °F - 3.2 °F 82% 30.38 in 3.0 mi Calm Calm - N/A   Haze
4:35 AM 7.7 °F - 3.0 °F 81% 30.38 in 1.2 mi Calm Calm - N/A   Haze
4:55 AM 7.7 °F - 3.0 °F 81% 30.38 in 0.5 mi Calm Calm - N/A   Haze
5:15 AM 7.7 °F - 3.0 °F 81% 30.38 in 5.0 mi Calm Calm - N/A   Haze
5:35 AM 7.0 °F - 1.9 °F 80% 30.38 in 5.0 mi Calm Calm - N/A   Haze
5:55 AM 7.7 °F - 2.8 °F 81% 30.38 in 7.0 mi Calm Calm - N/A   Clear
6:15 AM 5.0 °F - 0.1 °F 80% 30.37 in 10.0 mi Calm Calm - N/A   Clear
6:35 AM 5.0 °F - -0.2 °F 79% 30.37 in 10.0 mi Calm Calm - N/A   Clear
6:55 AM 5.0 °F - 0.1 °F 80% 30.38 in 7.0 mi Calm Calm - N/A   Clear
7:15 AM 7.7 °F - 3.0 °F 81% 30.37 in 7.0 mi Calm Calm - N/A   Clear
7:35 AM 5.4 °F - 0.5 °F 80% 30.38 in 7.0 mi Calm Calm - N/A   Clear
7:55 AM 5.0 °F - 0.1 °F 80% 30.38 in 3.0 mi Calm Calm - N/A   Haze
8:15 AM 7.2 °F - 2.5 °F 81% 30.40 in 2.0 mi Calm Calm - N/A   Haze
8:35 AM 7.7 °F - 2.7 °F 80% 30.39 in 4.0 mi Calm Calm - N/A   Haze
8:55 AM 7.7 °F - 2.8 °F 81% 30.39 in 4.0 mi Calm Calm - N/A   Haze
9:15 AM 9.5 °F - 4.8 °F 81% 30.39 in 3.0 mi Calm Calm - N/A   Clear
9:35 AM 10.2 °F - 5.0 °F 79% 30.39 in 4.0 mi Calm Calm - N/A   Haze
9:55 AM 15.6 °F 10.0 °F 11.5 °F 84% 30.39 in 5.0 mi West 3.5 mph - N/A   Haze
10:15 AM 17.6 °F 12.3 °F 13.5 °F 84% 30.39 in 5.0 mi WSW 3.5 mph - N/A   Haze
10:35 AM 17.8 °F 12.5 °F 13.6 °F 84% 30.38 in 5.0 mi WSW 3.5 mph - N/A   Clear
10:55 AM 19.6 °F 14.5 °F 15.4 °F 84% 30.37 in 5.0 mi WSW 3.5 mph - N/A   Clear
11:15 AM 20.8 °F 13.2 °F 16.9 °F 85% 30.36 in 5.0 mi SW 5.8 mph - N/A   Clear
11:35 AM 25.2 °F 18.3 °F 21.0 °F 84% 30.35 in 7.0 mi WSW 5.8 mph - N/A   Clear
11:55 AM 27.9 °F 21.5 °F 23.0 °F 82% 30.33 in 10.0 mi WSW 5.8 mph - N/A   Clear
12:15 PM 27.9 °F 19.8 °F 20.5 °F 74% 30.32 in 10.0 mi SSW 8.1 mph - N/A   Clear
12:35 PM 30.2 °F 26.7 °F 18.5 °F 62% 30.31 in 10.0 mi SW 3.5 mph - N/A   Clear
12:55 PM 32.5 °F 23.2 °F 18.1 °F 55% 30.30 in 10.0 mi WSW 12.7 mph 16.1 mph N/A   Clear
1:15 PM 32.5 °F 22.7 °F 16.9 °F 53% 30.30 in 10.0 mi SW 13.8 mph - N/A   Clear
1:35 PM 32.5 °F 23.7 °F 17.2 °F 53% 30.29 in 10.0 mi SW 11.5 mph - N/A   Clear
1:55 PM 32.5 °F 23.2 °F 17.4 °F 54% 30.29 in 10.0 mi SW 12.7 mph - N/A   Clear
2:15 PM 32.7 °F 24.5 °F 17.2 °F 53% 30.29 in 10.0 mi SW 10.4 mph - N/A   Clear
2:35 PM 34.9 °F 27.7 °F 18.7 °F 52% 30.29 in 10.0 mi SW 9.2 mph - N/A   Scattered Clouds
2:55 PM 35.1 °F 26.4 °F 14.9 °F 44% 30.29 in 10.0 mi West 12.7 mph 16.1 mph N/A   Overcast
3:15 PM 32.9 °F 23.2 °F 14.2 °F 46% 30.30 in 10.0 mi WNW 13.8 mph 24.2 mph N/A   Mostly Cloudy
3:35 PM 32.5 °F 21.9 °F 16.7 °F 52% 30.32 in 10.0 mi WNW 16.1 mph 20.7 mph N/A   Scattered Clouds
3:55 PM 32.5 °F 23.2 °F 17.4 °F 54% 30.33 in 10.0 mi WNW 12.7 mph 18.4 mph N/A   Clear
4:15 PM 30.2 °F 18.9 °F 16.7 °F 57% 30.35 in 10.0 mi WNW 16.1 mph 23.0 mph N/A   Clear
4:35 PM 28.0 °F 17.5 °F 15.6 °F 60% 30.36 in 10.0 mi NW 12.7 mph 21.9 mph N/A   Clear
4:55 PM 27.9 °F 18.4 °F 16.5 °F 62% 30.37 in 10.0 mi WNW 10.4 mph - N/A   Mostly Cloudy
5:15 PM 27.9 °F 18.4 °F 16.9 °F 63% 30.37 in 10.0 mi WNW 10.4 mph - N/A   Overcast
5:35 PM 27.9 °F 19.1 °F 17.2 °F 64% 30.38 in 10.0 mi WNW 9.2 mph - N/A   Overcast
5:55 PM 27.9 °F 17.8 °F 18.3 °F 67% 30.40 in 5.0 mi NW 11.5 mph 18.4 mph N/A Snow Light Snow
6:15 PM 27.9 °F 20.6 °F 19.6 °F 71% 30.40 in 5.0 mi NW 6.9 mph - N/A Snow Light Snow
6:35 PM 27.9 °F 19.1 °F 19.9 °F 72% 30.41 in 7.0 mi NW 9.2 mph - N/A Snow Light Snow
6:55 PM 27.9 °F 17.3 °F 18.0 °F 66% 30.43 in 10.0 mi NW 12.7 mph - N/A Snow Light Snow
7:15 PM 25.3 °F 14.1 °F 15.3 °F 66% 30.45 in 10.0 mi NW 12.7 mph 18.4 mph N/A   Overcast
7:35 PM 23.7 °F 13.3 °F 11.8 °F 61% 30.45 in 10.0 mi NNW 10.4 mph 20.7 mph N/A   Mostly Cloudy
7:55 PM 23.0 °F 11.7 °F 9.9 °F 57% 30.46 in 10.0 mi NW 11.5 mph 21.9 mph N/A   Scattered Clouds
8:15 PM 22.8 °F 14.5 °F 10.2 °F 59% 30.47 in 10.0 mi NNW 6.9 mph - N/A   Mostly Cloudy
8:35 PM 23.4 °F 14.3 °F 11.1 °F 60% 30.48 in 10.0 mi NW 8.1 mph - N/A   Overcast
8:55 PM 22.8 °F 12.9 °F 9.5 °F 57% 30.48 in 10.0 mi NNW 9.2 mph - N/A   Overcast
9:15 PM 22.8 °F 14.5 °F 9.9 °F 58% 30.50 in 10.0 mi NW 6.9 mph - N/A   Overcast
9:35 PM 22.8 °F 12.9 °F 9.9 °F 58% 30.50 in 10.0 mi NW 9.2 mph - N/A   Overcast
9:55 PM 21.6 °F 10.6 °F 8.8 °F 58% 30.50 in 10.0 mi NNW 10.4 mph - N/A   Overcast
10:15 PM 21.0 °F 10.6 °F 8.6 °F 59% 30.50 in 10.0 mi NNW 9.2 mph - N/A Snow Light Snow
10:35 PM 20.3 °F 10.6 °F 7.7 °F 58% 30.51 in 10.0 mi NNW 8.1 mph 16.1 mph N/A   Overcast
10:55 PM 19.4 °F 11.5 °F 7.3 °F 60% 30.52 in 10.0 mi NNW 5.8 mph - N/A   Overcast
11:15 PM 19.0 °F 11.1 °F 7.2 °F 60% 30.52 in 10.0 mi NW 5.8 mph - N/A   Overcast
11:35 PM 18.3 °F 9.1 °F 7.0 °F 61% 30.52 in 10.0 mi West 6.9 mph - N/A   Mostly Cloudy
11:55 PM 16.2 °F 5.5 °F 5.9 °F 64% 30.52 in 10.0 mi West 8.1 mph - N/A   Mostly Cloudy